GFSCGP_500_rhum_000.txt.gz
RH
16 16 19 19 22 26 27 25 22 22 24 26 26 26 23 22 21 14 11 11 11 10 11 11 10 12 12 13 14 15 14 14 16 17 20 22 24 26 28 30 28 31 30 32
17 20 23 24 26 27 27 24 25 28 23 21 27 24 23 19 13 13 13 13 12 12 12 13 12 14 16 17 18 20 21 21 21 23 22 25 27 29 31 37 40 41 49 55
17 19 22 24 26 30 28 29 27 26 26 19 24 27 14 18 15 13 16 15 15 16 16 19 24 29 31 35 39 42 42 41 38 37 39 36 38 46 48 50 54 51 54 63
18 20 22 23 24 25 27 26 27 28 29 28 24 33 64 22 18 18 21 25 28 30 31 35 36 38 39 42 46 51 55 53 50 47 51 62 58 54 60 69 71 74 68 73
21 22 22 22 23 25 24 24 25 26 27 29 28 29 49 50 43 32 29 30 36 42 39 42 45 45 49 51 53 57 61 62 61 61 58 58 76 70 82 92 93 93 94 90
20 21 21 21 21 25 24 23 24 22 27 31 31 36 39 61 80 44 52 58 43 42 49 54 56 58 60 53 52 59 65 67 68 68 70 68 67 82 87 94 97 96 96 99
20 13 19 23 24 22 24 25 24 26 34 33 63 36 44 56 72 76 77 62 52 49 55 41 39 43 56 55 59 63 62 63 66 72 80 77 78 85 96 97 91 88 83 90
21 21 16 23 24 26 30 34 35 35 34 34 40 44 46 74 91 86 76 75 60 44 46 43 42 45 46 50 60 70 69 67 73 71 75 82 88 86 90 94 86 81 96 100
21 20 20 28 32 32 37 36 38 38 40 37 38 50 56 78 99 98 93 86 62 68 58 49 46 49 46 57 66 70 65 75 79 93 95 97 96 92 86 86 77 83 88 99
14 20 30 31 34 33 36 37 38 40 41 45 48 54 59 96 92 89 96 99 80 69 57 55 56 60 61 76 76 70 68 78 94 100 100 100 100 90 79 70 76 83 93 100
22 22 28 32 36 37 39 44 49 50 59 59 53 50 74 77 67 66 64 67 69 71 68 63 65 70 67 76 79 73 73 82 86 93 91 98 90 69 60 75 89 100 100 100
32 33 32 38 40 43 47 57 61 62 55 55 53 35 74 72 80 78 88 79 68 66 64 69 79 83 72 76 81 84 76 71 72 76 84 79 76 50 48 72 94 100 100 100
38 33 33 42 44 35 37 50 57 62 63 50 60 38 75 78 81 78 73 67 62 65 70 73 81 76 73 80 84 80 77 71 70 73 67 59 47 47 59 75 91 100 100 100
37 42 42 50 45 44 43 48 62 69 57 63 69 63 77 87 80 75 73 64 63 65 66 65 82 72 79 75 76 78 80 77 69 58 52 42 43 58 69 87 100 100 100 100
61 53 53 63 54 54 54 53 74 77 76 71 64 87 80 78 73 68 63 60 61 58 62 72 74 83 81 75 85 93 90 73 59 55 42 41 58 70 93 100 100 100 100 93
54 47 48 48 52 56 51 68 66 64 66 67 64 59 82 72 65 62 64 66 60 62 55 69 78 77 84 90 91 90 81 64 52 44 44 64 72 82 91 100 100 95 97 96
49 54 52 43 52 52 52 63 60 54 69 77 77 73 69 67 64 64 62 60 59 57 64 65 65 75 78 85 86 85 68 52 47 47 63 82 96 99 100 100 100 100 93 44
62 65 62 58 55 50 59 76 77 76 73 88 84 78 65 65 62 74 83 84 67 64 69 72 76 80 90 94 90 66 52 53 45 66 90 100 100 100 100 100 99 80 22 17
64 66 66 65 61 50 54 77 81 81 78 90 78 82 92 89 81 79 86 81 89 87 82 87 91 92 89 86 65 64 62 39 54 89 100 100 100 100 100 97 66 22 20 18
65 66 70 70 62 47 60 79 74 78 70 100 100 100 100 99 80 73 70 67 61 67 80 94 99 97 85 71 71 52 33 44 76 100 100 100 100 98 94 60 26 23 20 16
73 78 76 78 72 54 73 70 82 93 100 91 96 100 100 94 91 80 64 61 67 80 94 99 94 88 77 68 41 33 48 72 92 98 100 100 100 100 65 30 28 22 16 12
85 86 92 78 83 69 86 95 100 100 90 99 93 94 97 99 78 61 67 90 94 78 91 95 86 79 60 35 36 65 82 98 100 100 100 100 100 76 37 32 24 16 12 11
80 100 89 93 96 86 85 97 80 100 100 93 86 89 100 80 64 68 84 96 96 100 100 85 76 44 32 34 75 89 100 100 100 100 100 100 86 48 41 27 17 12 11 15
71 100 93 78 78 82 77 84 91 99 93 91 97 97 74 65 63 85 87 95 97 93 77 51 31 25 31 73 93 100 100 100 100 100 100 93 56 45 32 19 13 12 12 20
88 99 99 61 64 67 67 81 98 99 94 83 84 76 74 92 100 100 100 99 98 92 66 26 18 31 82 92 100 100 100 100 100 100 94 60 48 34 20 14 12 12 19 20
95 100 95 69 73 81 66 69 66 77 90 82 69 57 67 100 99 93 96 94 84 52 15 14 39 81 91 100 100 100 100 100 100 91 60 50 34 20 14 13 14 14 37 20

GFSCGP_500_rhum_003.txt.gz
RH
15 15 15 18 20 20 21 21 20 19 19 20 18 15 15 16 18 12 13 14 13 12 11 12 11 13 17 23 29 33 34 35 38 40 43 45 38 38 39 40 36 34 40 48
16 20 20 20 21 22 20 21 21 24 22 17 19 18 16 22 22 16 15 18 22 25 31 27 24 27 33 35 37 40 42 47 54 58 57 56 54 51 50 50 50 51 51 49
16 16 18 19 19 23 19 21 21 20 23 25 18 26 20 17 19 28 31 24 24 26 26 36 42 42 40 44 52 53 54 56 57 56 60 62 60 59 62 58 58 59 56 54
15 16 16 18 19 21 24 22 22 22 21 24 25 30 34 35 30 28 27 31 32 34 34 40 48 50 50 53 54 60 66 66 64 58 54 58 70 73 71 78 85 79 75 80
15 13 14 15 17 17 19 22 23 24 26 27 25 26 49 51 45 47 44 48 60 72 48 52 53 49 56 60 64 62 62 71 75 78 79 78 78 81 84 91 97 95 85 81
17 16 18 14 14 17 18 19 24 25 25 31 30 35 45 47 56 64 71 82 91 77 48 47 48 48 47 45 46 50 52 54 55 62 66 66 68 74 83 94 96 98 95 89
22 18 14 19 16 19 20 21 25 28 33 31 43 40 53 64 91 100 98 95 86 68 62 60 51 44 46 49 51 52 56 56 60 68 63 68 68 66 65 66 70 87 90 77
24 20 16 16 19 23 25 27 29 32 27 26 37 44 53 56 72 69 75 88 81 83 67 57 56 61 61 58 60 61 71 59 70 81 83 81 85 83 77 74 72 66 60 46
28 24 16 22 24 24 28 32 32 35 39 40 44 50 76 63 72 97 86 92 86 78 65 64 72 73 65 58 62 77 72 66 70 73 84 86 86 87 81 73 62 54 38 35
25 22 28 28 30 33 36 32 38 42 41 38 36 39 81 87 75 97 92 84 74 77 79 87 82 67 61 72 73 65 69 74 72 66 74 81 79 77 68 58 46 37 47 72
26 28 38 38 39 37 37 40 52 51 62 57 60 45 83 96 85 84 88 82 84 83 91 81 72 66 69 62 64 72 70 72 66 60 62 75 81 72 52 39 39 46 77 94
40 41 41 40 41 48 51 60 63 73 76 69 83 46 78 91 100 100 100 86 81 92 79 70 77 77 71 66 62 67 70 73 60 59 64 71 73 60 46 48 46 81 97 100
46 40 39 56 52 51 52 62 68 79 76 76 94 59 82 95 98 100 93 83 70 76 74 80 78 73 62 62 65 65 67 72 71 68 67 68 58 54 57 40 51 84 89 100
61 56 48 49 48 44 46 52 68 67 57 58 67 63 81 95 98 86 72 68 76 67 69 70 69 66 68 65 64 67 75 90 89 78 72 64 61 60 35 46 80 97 100 100
40 40 42 44 47 52 56 58 60 56 59 56 55 73 83 86 77 70 77 75 77 75 65 64 63 61 58 53 61 70 81 87 92 84 71 66 53 32 32 57 88 85 84 92
40 39 39 39 52 53 54 57 54 57 67 72 72 75 91 77 71 74 82 76 76 81 78 76 68 59 53 56 61 68 75 83 83 78 68 43 32 42 78 87 82 90 100 98
62 61 58 54 55 52 53 59 55 59 69 65 63 58 63 76 77 76 89 89 88 83 86 77 65 54 47 44 54 74 78 84 76 66 37 34 63 99 100 100 100 100 100 100
59 63 61 55 55 49 58 64 68 59 64 66 71 74 84 73 68 93 100 100 99 89 80 67 62 56 49 67 74 85 88 75 58 31 30 54 99 100 100 100 100 100 96 54
64 62 56 52 45 41 51 56 50 50 47 57 57 64 82 96 83 77 87 93 85 80 66 58 49 52 64 87 95 92 77 54 25 23 66 97 100 100 100 100 100 99 66 35
61 63 59 54 45 35 59 50 55 52 44 62 73 69 68 92 68 59 70 76 68 69 64 54 62 77 86 97 90 77 52 17 16 59 90 97 97 100 100 100 100 82 44 35
61 57 61 64 55 48 71 67 68 66 56 57 61 60 58 62 70 74 69 62 64 63 64 70 93 92 90 86 72 48 11 13 59 95 100 100 100 100 100 100 94 56 41 28
68 73 74 62 61 66 78 78 95 86 75 79 69 66 68 78 79 68 70 60 49 42 48 99 92 80 70 62 41 10 13 64 98 100 100 100 100 100 100 95 62 46 31 19
68 93 85 87 66 80 98 100 93 100 94 85 75 70 63 64 69 59 50 41 31 37 85 90 76 55 44 29 7 24 87 100 100 100 100 100 100 100 95 62 47 31 19 13
61 95 93 82 77 78 88 88 99 89 78 75 69 83 100 75 46 47 76 47 91 100 100 97 68 35 13 4 32 98 100 100 100 100 100 100 100 93 62 44 27 17 13 12
66 91 95 71 91 80 75 88 75 75 80 80 85 74 58 42 37 53 83 82 100 100 100 100 54 10 6 34 94 100 98 99 100 100 100 100 89 52 34 22 14 12 12 12
74 94 97 79 82 82 63 62 79 84 81 60 39 29 28 40 35 56 61 92 100 100 100 77 9 8 44 88 94 100 100 100 100 99 99 75 38 24 16 12 13 14 15 14

GFSCGP_500_rhum_006.txt.gz
RH
17 15 16 16 19 17 17 16 16 15 11 15 16 15 13 19 17 16 16 14 13 13 14 18 24 27 28 34 38 39 42 47 51 50 50 53 55 56 55 51 50 53 59 63
16 17 18 17 20 20 18 20 19 19 17 13 17 18 18 19 21 25 24 25 27 32 34 31 36 45 48 58 66 67 68 71 72 67 60 61 61 62 63 62 61 60 60 65
15 15 15 16 18 20 21 22 23 20 22 17 16 18 20 23 23 28 32 33 36 41 41 34 44 52 60 58 59 67 76 81 75 62 53 51 54 59 62 62 64 63 60 62
14 13 13 12 13 17 20 19 20 22 23 24 22 28 29 27 29 33 35 40 42 44 43 42 45 49 46 55 59 56 58 58 52 48 49 52 52 55 63 64 66 67 66 68
17 16 16 15 10 12 16 19 19 22 24 30 34 32 40 32 37 44 39 42 44 40 46 55 50 49 56 61 62 60 58 51 46 42 42 44 44 47 51 58 62 66 67 72
22 22 19 22 14 10 12 18 21 25 28 37 33 35 42 40 53 63 71 56 47 51 71 86 73 68 69 70 72 70 56 51 50 51 52 57 60 59 58 62 66 63 60 60
30 24 22 23 18 13 15 18 23 25 27 31 37 44 37 46 53 68 73 76 78 97 100 79 72 75 77 72 76 69 66 61 63 66 70 79 80 77 73 71 70 70 63 58
28 32 24 20 14 20 21 21 22 26 25 33 38 44 41 43 60 54 58 72 72 78 71 80 74 80 85 90 72 65 64 70 71 67 66 68 73 78 82 78 72 69 72 67
35 32 27 19 20 24 24 27 29 30 32 34 44 49 48 80 69 67 70 72 64 69 78 83 93 92 87 74 69 66 68 71 63 57 55 58 64 69 76 74 74 73 69 56
37 32 31 30 35 37 38 32 30 34 38 37 35 43 52 80 84 95 85 73 69 77 88 89 88 82 69 64 64 70 66 60 55 53 51 48 46 48 61 68 68 71 68 65
39 43 38 35 36 36 37 36 34 38 51 47 52 41 66 71 83 93 91 87 94 97 95 82 70 69 65 64 64 61 59 54 51 47 43 39 39 39 50 67 77 71 64 50
42 44 42 44 44 47 50 50 49 48 48 50 60 40 74 65 76 69 77 82 80 83 78 72 80 89 78 72 71 69 64 57 48 40 35 31 31 42 73 75 68 57 38 30
50 48 51 52 44 44 49 55 53 55 56 59 59 58 74 84 80 70 70 77 81 79 73 69 81 86 82 78 74 70 62 51 42 40 43 47 60 72 68 63 48 28 31 53
44 43 42 42 44 47 56 61 61 54 52 49 52 48 68 56 61 61 54 52 66 63 62 66 70 71 81 82 75 59 50 50 53 59 71 77 70 65 60 44 20 36 69 99
37 38 44 53 56 55 58 60 56 55 57 53 54 54 54 53 51 51 53 56 51 54 63 73 81 98 98 80 57 47 48 53 60 63 57 56 57 56 33 11 16 71 100 100
51 56 58 61 61 58 59 60 56 54 52 46 44 41 42 44 47 47 60 51 66 80 100 100 100 87 76 57 46 41 37 33 33 47 46 41 44 22 12 33 88 100 97 92
59 56 56 56 55 53 58 51 45 44 48 39 33 33 43 48 50 60 59 56 64 100 100 72 60 62 57 41 36 28 15 33 52 48 37 36 21 25 92 100 100 100 100 100
52 52 50 52 52 47 65 50 48 41 47 49 49 56 53 49 53 64 67 64 71 71 60 60 55 28 20 33 37 19 46 50 46 40 29 15 26 71 100 100 100 100 100 100
61 61 59 55 44 41 66 53 48 44 48 56 60 61 60 70 67 68 70 62 65 65 57 38 21 28 60 74 58 83 91 73 70 29 11 25 85 100 95 90 93 95 100 96
68 70 64 61 56 45 76 64 61 53 48 56 58 57 66 73 62 54 59 67 71 70 41 29 23 43 89 100 76 100 100 95 87 8 24 81 99 100 100 100 100 100 90 83
79 72 74 74 66 61 78 70 68 63 52 54 64 68 68 67 76 78 75 64 44 49 56 45 39 60 100 94 70 100 92 90 15 37 99 100 100 100 100 100 100 91 86 61
79 78 82 66 61 68 74 85 95 86 74 77 70 72 69 77 85 77 47 88 94 39 26 41 33 48 80 90 100 89 58 13 45 100 100 100 100 100 100 99 94 88 58 30
69 88 79 86 61 85 88 90 92 100 87 73 77 82 84 74 52 41 49 64 33 48 85 68 64 90 100 100 96 43 10 49 94 100 100 100 100 100 95 94 77 38 20 15
72 87 80 87 86 90 93 98 100 97 84 84 69 50 45 37 25 96 100 100 69 43 58 100 100 99 97 99 68 16 60 87 99 100 100 100 98 98 88 43 19 15 14 14
79 79 87 82 89 73 89 88 67 62 69 44 46 65 70 51 19 16 53 61 48 53 94 100 100 100 92 37 27 72 93 100 100 100 100 100 91 49 17 14 13 13 13 12
83 80 76 64 83 62 43 40 37 34 21 43 52 97 40 17 25 30 47 71 86 98 100 94 92 64 20 38 86 100 100 100 100 100 98 47 16 15 13 13 15 19 26 28

GFSCGP_500_rhum_009.txt.gz
RH
17 18 17 20 19 18 22 20 17 13 10 14 14 13 15 15 16 18 18 19 23 25 27 24 25 34 47 59 63 62 60 61 61 59 55 49 52 51 48 43 41 44 49 53
17 17 16 17 17 18 19 20 19 16 13 10 12 15 17 18 17 18 19 23 28 34 35 33 36 43 61 59 58 59 64 65 68 66 63 61 61 55 54 57 50 44 44 48
14 14 14 12 12 14 15 17 18 20 22 16 20 22 24 23 24 24 25 29 33 39 43 46 54 66 66 58 60 64 66 63 56 54 53 52 55 50 50 49 49 48 47 53
14 14 14 11 11 12 14 16 17 18 20 22 27 31 30 28 28 30 34 36 42 42 46 48 54 57 60 60 61 70 65 62 57 54 55 54 51 46 42 41 42 46 49 47
25 19 18 17 15 13 16 14 19 21 23 26 26 31 30 28 30 33 40 44 44 43 37 38 41 48 66 72 79 75 70 63 58 55 55 54 51 50 48 48 43 45 48 51
28 30 24 21 18 10 14 19 24 22 21 25 27 27 25 30 33 40 45 55 52 53 54 53 64 73 82 72 72 62 57 59 58 58 55 52 50 47 46 46 45 46 45 49
22 26 30 28 23 18 13 15 20 22 25 25 23 22 28 35 44 65 68 62 62 74 68 68 66 60 66 70 60 63 68 64 57 51 51 51 51 51 49 47 46 44 44 44
27 27 30 29 26 20 18 22 24 28 23 24 26 29 31 37 50 66 54 51 55 46 49 56 61 70 80 70 71 71 60 57 54 55 55 54 54 54 53 49 43 39 35 32
34 36 34 32 24 19 18 22 27 26 26 30 39 44 42 48 60 51 51 46 41 46 57 62 66 80 75 74 64 54 56 53 51 52 55 62 61 57 51 46 39 36 35 38
36 34 31 28 24 24 24 30 30 31 34 32 33 44 46 52 46 50 41 41 49 58 64 68 70 78 80 64 47 50 53 52 63 70 68 64 59 47 38 36 39 41 44 42
43 41 34 36 37 38 39 39 36 36 38 37 34 31 52 43 41 43 53 63 69 72 73 67 67 77 65 51 47 44 51 64 70 66 66 58 43 26 24 37 42 49 39 20
49 48 46 47 47 48 42 41 39 37 36 38 42 37 56 51 47 53 55 57 62 60 58 62 52 49 54 48 48 51 62 70 68 65 59 43 24 28 30 37 35 29 20 26
48 45 44 40 39 43 43 45 51 45 47 49 46 51 53 53 55 50 48 51 50 45 36 35 37 39 44 55 78 100 98 80 75 66 55 34 34 33 22 40 39 11 21 20
40 39 37 40 43 51 59 60 60 50 44 45 47 38 48 40 35 33 34 33 33 33 36 43 48 48 47 73 100 100 67 66 53 46 34 42 60 45 87 97 62 11 17 37
32 36 44 48 56 56 54 52 51 49 51 42 46 42 39 36 34 38 41 41 43 49 54 60 59 53 54 95 75 59 39 26 21 24 44 73 100 46 54 52 22 10 52 94
61 48 45 44 47 48 49 58 58 55 57 51 46 45 45 46 47 50 56 59 58 58 62 60 61 66 73 66 65 30 17 15 19 28 40 53 47 41 55 36 24 100 100 100
78 76 69 58 56 59 62 63 57 56 64 57 50 50 52 57 65 71 74 72 69 75 66 74 76 67 44 29 27 88 76 45 30 37 66 74 87 48 10 45 100 100 100 100
75 74 72 61 60 62 72 60 55 52 59 60 53 62 65 66 69 70 64 55 62 66 68 63 40 26 53 88 99 99 90 100 82 71 58 84 92 42 21 90 100 100 100 99
78 71 63 61 64 53 70 62 56 48 44 62 57 58 63 69 62 62 62 58 54 59 45 34 68 84 67 100 100 84 74 87 90 79 78 54 32 33 79 99 100 98 97 96
88 86 81 76 67 52 79 69 60 52 42 51 54 58 70 77 57 51 46 52 33 31 28 20 71 100 100 100 100 91 47 65 70 55 33 35 86 100 100 99 100 100 100 100
92 88 86 86 70 62 80 67 62 62 62 53 64 75 77 68 65 56 44 39 47 52 33 35 59 91 90 100 100 87 27 36 34 26 34 86 96 95 97 100 100 100 97 85
96 88 87 73 71 79 80 75 72 66 55 61 67 66 64 56 42 30 28 26 44 88 100 100 92 47 60 89 100 61 25 21 23 55 90 90 93 100 100 100 96 74 41 23
80 94 79 78 78 100 100 80 72 62 55 56 55 59 59 53 37 24 64 67 97 100 100 91 98 68 73 97 79 26 18 24 74 86 85 96 100 100 96 62 26 20 19 17
72 88 68 90 95 100 94 84 74 72 62 56 61 48 45 43 28 39 100 100 84 52 65 92 92 90 100 97 36 20 49 96 89 91 97 100 98 52 20 18 17 14 12 12
88 84 91 73 82 69 73 71 53 46 97 71 43 38 34 27 31 81 100 100 100 93 98 100 100 100 82 44 22 67 90 94 94 96 99 53 23 21 17 14 14 15 19 24
100 100 94 71 68 59 52 49 84 71 46 45 36 25 23 26 25 26 34 52 77 100 87 88 83 42 22 23 73 84 93 92 96 71 27 24 18 15 15 17 23 29 34 35

GFSCGP_500_rhum_012.txt.gz
RH
15 16 20 18 18 18 19 17 15 12 12 12 13 13 13 16 17 17 20 21 22 25 31 33 34 35 37 45 56 61 59 53 56 54 54 59 61 60 61 59 59 58 56 54
12 13 16 18 16 15 18 19 18 17 16 16 18 15 13 15 18 21 25 28 29 31 36 37 36 40 49 60 77 74 59 56 61 59 58 59 57 54 54 52 51 49 43 40
12 12 13 14 14 13 11 13 15 16 16 17 22 22 25 26 28 29 30 31 32 34 30 29 37 49 53 58 68 66 68 66 58 52 59 55 54 52 46 40 38 37 38 37
20 16 14 14 14 15 12 10 11 12 17 18 20 20 21 22 24 26 28 32 33 30 29 38 48 58 55 57 57 59 61 63 68 77 63 59 51 43 44 44 43 45 46 45
29 29 24 19 16 15 16 14 11 11 18 19 19 22 20 19 21 23 28 30 28 26 37 42 47 50 51 52 57 61 67 72 77 67 58 47 44 42 38 40 39 43 45 50
20 22 23 26 24 18 17 16 15 16 21 19 22 21 16 20 23 26 32 31 35 43 47 51 55 63 63 70 68 67 63 63 63 54 42 42 43 38 37 45 48 51 53 51
15 19 22 23 24 26 24 18 14 16 18 22 20 19 20 26 33 36 39 42 43 50 56 60 61 61 60 62 62 57 52 58 50 44 36 35 52 61 56 56 56 54 52 48
25 23 22 27 28 30 28 21 19 21 21 23 23 30 25 33 38 37 32 37 44 50 53 52 51 53 55 51 43 42 42 39 38 41 42 46 46 50 78 73 69 61 52 30
32 33 34 33 32 29 27 21 22 23 24 24 26 30 30 36 36 33 38 45 49 51 50 51 50 46 42 36 35 32 28 38 50 54 60 58 72 94 81 73 76 65 44 35
37 36 37 34 31 29 31 27 25 25 25 24 29 37 40 40 34 41 45 43 45 46 43 38 37 33 31 29 33 35 38 42 47 67 79 97 98 100 76 71 50 30 32 30
41 41 40 42 36 34 35 34 34 34 33 31 32 37 52 46 45 44 42 39 36 32 30 33 33 35 38 43 44 45 50 49 45 44 63 87 100 80 40 27 22 19 16 17
46 48 47 46 40 39 39 37 36 34 35 40 45 37 50 48 43 40 36 34 33 34 40 46 49 49 45 42 44 46 49 48 49 51 68 96 58 57 83 54 29 17 12 19
40 37 36 36 34 33 34 38 49 49 44 48 45 50 48 47 41 40 40 42 42 49 52 48 46 46 45 45 47 48 54 58 67 65 63 72 78 80 99 68 46 26 21 30
37 42 39 35 30 30 38 52 53 49 46 50 50 41 50 45 47 50 52 51 48 45 40 41 44 47 45 43 45 48 54 61 42 28 58 72 92 100 100 74 19 10 11 18
55 54 60 58 57 52 50 51 54 52 50 50 53 50 58 54 50 46 49 47 44 43 43 45 43 42 41 33 29 46 45 33 70 81 90 100 100 100 94 40 9 10 18 66
60 60 59 58 68 69 65 58 63 62 65 61 60 59 55 49 44 46 51 48 43 48 48 48 46 39 37 31 30 33 26 56 100 98 100 100 76 50 34 11 15 27 84 100
57 63 62 63 64 64 62 62 70 69 70 67 59 52 47 48 51 55 56 49 48 46 43 41 35 37 34 39 38 52 61 92 100 100 79 56 48 26 12 17 38 88 100 100
73 69 67 66 66 64 73 71 70 65 67 70 60 56 53 53 50 56 55 49 46 42 40 42 36 24 28 74 98 100 100 100 100 100 57 72 92 19 20 60 89 92 95 98
67 66 68 66 71 68 80 84 77 67 60 63 61 59 58 51 40 48 50 46 44 42 42 42 35 36 56 70 77 100 98 97 86 89 74 55 17 41 98 98 97 100 100 100
64 66 70 73 78 71 82 84 77 64 55 53 51 52 53 50 41 37 38 38 39 35 34 33 29 69 100 100 100 100 100 94 78 63 39 20 54 90 84 85 90 93 95 88
73 76 80 86 77 69 80 80 68 57 51 47 52 56 56 45 46 55 58 60 45 34 26 30 61 100 100 100 100 96 84 52 22 19 33 76 86 82 84 88 84 52 28 25
79 79 84 75 79 76 72 64 60 62 56 59 63 56 55 64 65 68 95 84 45 30 31 50 66 100 100 81 89 84 38 18 18 32 85 93 92 88 81 42 28 24 18 15
69 81 72 68 66 79 75 71 70 64 65 66 62 56 61 100 100 99 74 43 31 33 65 98 100 91 99 65 31 21 20 23 62 88 93 97 89 44 31 25 18 15 14 15
61 69 61 59 70 76 73 80 76 83 81 74 68 73 86 90 95 64 42 32 29 49 64 88 100 79 26 24 19 20 24 44 80 89 97 68 36 28 21 16 15 17 21 23
68 70 76 66 75 71 83 73 77 86 96 77 67 61 63 53 40 37 28 25 27 38 100 99 51 30 23 20 23 27 55 86 84 92 64 36 25 21 17 17 19 23 29 37
94 95 86 70 81 81 78 76 87 85 83 61 41 36 38 40 33 21 18 32 44 100 90 46 38 23 24 29 30 42 90 87 91 64 36 27 22 18 18 19 23 38 47 47

GFSCGP_500_rhum_015.txt.gz
RH
13 14 16 18 20 20 20 19 17 15 17 15 15 15 14 15 14 17 21 24 30 31 29 27 29 29 33 36 36 36 39 38 42 47 52 57 61 64 63 55 48 41 36 31
11 14 15 16 16 15 15 16 18 17 17 20 18 16 17 19 23 26 29 31 31 28 28 27 26 32 44 43 44 49 46 50 59 63 61 58 55 55 52 41 35 28 27 30
12 11 12 12 13 12 12 12 12 14 14 15 17 17 18 19 20 24 28 30 30 31 32 31 36 40 42 50 58 63 64 70 62 56 54 52 42 33 32 32 31 39 43 41
21 18 16 15 12 12 12 13 11 9 9 14 17 17 16 17 21 24 26 28 32 33 38 40 42 50 57 60 61 61 63 60 54 52 49 43 38 38 43 40 33 35 48 47
26 24 24 23 22 19 14 12 11 11 9 10 16 16 14 16 22 26 23 24 30 37 40 47 52 55 55 52 50 51 57 56 51 48 45 45 50 43 36 36 35 39 40 38
21 18 18 20 21 21 22 18 17 15 12 14 16 17 16 22 23 26 29 35 38 42 45 45 47 49 51 55 59 61 58 54 54 50 45 35 32 35 40 59 60 66 83 67
15 13 13 16 19 21 22 24 22 18 14 17 19 21 23 24 26 28 34 37 41 45 48 49 50 52 52 49 48 47 40 37 34 37 37 36 39 41 44 49 53 64 90 93
19 25 25 27 25 26 29 29 26 21 18 20 21 22 22 29 36 35 34 42 44 46 50 50 47 44 40 36 36 34 35 37 37 37 40 45 51 52 60 71 80 99 100 100
26 30 33 33 35 33 36 31 30 29 27 26 26 27 33 39 38 40 45 47 47 48 44 37 35 36 34 34 33 35 37 41 44 48 52 55 60 64 68 68 67 69 72 93
28 28 29 30 31 31 32 30 29 30 30 29 32 32 46 52 49 42 44 45 43 38 34 35 34 31 35 37 39 45 48 49 52 52 50 57 63 65 70 72 74 59 68 79
32 37 41 41 41 40 39 38 37 35 32 31 30 35 50 46 42 39 39 35 34 36 39 41 42 44 46 47 47 46 47 44 42 45 49 54 56 70 69 44 62 66 66 73
41 40 40 36 35 33 32 33 34 34 31 30 32 35 48 49 44 40 43 44 47 49 48 46 51 49 44 42 42 42 41 42 41 42 41 36 41 53 36 37 70 92 100 71
33 35 39 42 39 38 41 41 41 43 40 43 40 52 50 54 49 47 49 51 49 47 47 45 44 43 42 40 42 44 37 35 29 22 21 28 47 54 76 94 100 97 61 45
44 44 52 56 59 53 52 62 65 64 62 55 56 51 67 57 51 50 50 47 48 50 46 44 41 35 32 33 36 35 36 34 30 32 44 57 70 85 100 100 92 62 32 44
39 46 45 48 54 56 53 67 74 72 72 62 60 62 58 56 55 54 55 56 52 47 42 36 32 31 32 35 35 34 32 31 36 51 92 100 100 100 88 77 65 29 18 29
46 45 47 47 52 56 56 69 72 66 61 58 66 69 67 64 60 58 52 47 42 39 36 35 35 39 46 47 42 34 29 28 47 100 100 100 96 95 52 48 19 22 50 81
46 54 56 54 50 48 52 65 71 78 85 81 76 71 64 64 59 55 48 46 43 40 41 41 47 54 56 63 36 31 30 29 53 100 100 95 46 19 18 21 43 82 84 84
60 62 54 47 52 52 64 66 66 73 83 78 70 66 63 59 56 52 49 47 48 50 52 61 78 97 100 60 32 29 26 48 100 95 58 19 16 16 18 46 84 90 87 88
52 62 55 51 51 55 87 82 83 76 72 70 62 57 60 61 53 57 55 56 58 57 78 100 100 100 100 50 27 33 63 81 76 75 22 15 18 32 80 85 88 85 65 39
60 67 61 59 58 60 84 77 73 63 57 57 49 58 55 60 51 53 59 63 61 61 86 100 100 100 56 31 29 37 64 84 59 15 16 21 38 74 84 84 66 40 30 23
71 74 63 61 62 65 70 66 52 49 48 48 56 62 64 63 63 69 76 65 63 98 100 100 100 74 27 35 68 84 45 22 16 19 26 53 85 93 86 53 33 24 21 17
79 74 61 56 65 63 58 53 57 56 62 68 74 69 70 76 74 75 74 51 95 99 90 58 33 26 65 72 45 33 26 16 23 28 67 96 97 84 51 31 25 21 18 17
77 77 63 64 61 70 68 60 69 74 77 76 73 83 82 78 73 65 46 42 48 45 31 25 26 36 46 41 43 32 19 24 28 41 91 95 83 53 35 27 23 19 19 20
90 78 69 63 73 75 73 86 90 89 85 76 79 82 78 74 56 49 54 50 35 24 24 31 35 39 41 46 43 22 26 27 31 88 94 84 61 40 31 26 22 20 23 29
93 80 73 65 77 70 94 94 91 82 80 83 87 80 72 62 59 61 49 36 31 27 30 32 38 44 48 48 27 27 30 28 69 98 92 68 49 37 30 26 21 24 28 31
80 80 72 64 73 72 72 79 82 94 89 78 76 74 69 68 59 48 45 34 29 29 34 42 45 47 46 30 27 31 30 34 95 100 75 58 46 35 31 25 25 31 47 74

GFSCGP_500_rhum_018.txt.gz
RH
17 17 16 17 16 17 18 19 18 19 20 16 13 12 12 18 18 20 25 28 32 33 33 34 31 31 35 34 34 40 47 51 55 54 52 56 63 62 57 55 53 42 36 32
14 16 15 13 13 14 14 15 16 16 17 18 18 20 20 22 25 26 30 32 32 32 32 31 35 41 43 43 44 53 56 60 65 62 59 61 60 55 51 48 44 37 35 31
13 13 13 12 13 12 12 11 10 11 12 14 16 18 20 21 20 23 25 28 29 30 31 39 46 49 46 49 54 59 63 66 66 59 54 52 46 41 32 30 30 34 36 38
19 18 18 17 16 13 10 11 11 11 12 12 15 20 18 17 19 24 25 24 26 32 41 46 45 45 50 51 54 61 63 57 54 50 48 43 35 34 33 33 34 38 39 39
26 26 25 23 22 21 20 20 17 14 13 13 16 24 14 20 23 24 24 22 24 27 32 38 46 48 47 46 49 52 52 45 37 38 41 36 33 35 37 38 44 54 49 51
25 22 19 17 15 18 20 19 20 22 20 16 16 22 14 24 26 25 22 25 28 34 37 44 44 45 48 50 49 45 39 34 33 32 32 37 41 44 46 49 52 55 62 65
19 15 12 13 13 15 20 22 23 24 26 24 22 20 20 25 26 28 28 30 35 39 46 49 50 51 49 45 38 34 33 34 37 38 42 48 52 52 52 55 59 63 56 49
13 22 22 25 25 27 28 30 32 30 28 28 26 24 23 28 32 33 33 38 45 48 50 52 53 50 41 37 38 39 38 42 45 48 54 60 62 65 63 49 40 34 30 26
22 24 25 27 28 30 35 31 35 34 31 29 29 32 36 41 39 41 46 48 49 51 50 48 44 43 45 46 43 42 43 47 54 65 72 71 52 35 34 35 30 26 26 35
22 24 29 35 37 40 41 39 38 37 35 34 34 33 49 48 46 46 48 50 46 47 49 50 50 47 41 38 40 45 52 56 52 43 38 36 35 34 32 31 28 27 38 57
34 34 32 32 33 32 32 32 32 32 34 33 27 32 38 37 42 44 48 55 57 58 54 48 45 42 43 48 53 54 50 41 40 40 40 40 38 37 37 33 26 26 53 67
30 38 42 43 44 46 48 46 45 47 44 45 46 40 46 50 50 50 55 56 55 50 46 46 48 48 50 49 44 43 41 43 43 47 50 43 40 40 27 22 46 60 78 99
37 38 42 41 40 41 46 48 50 53 53 58 56 66 61 61 58 61 59 58 57 57 55 52 47 47 47 44 44 45 45 50 61 70 69 42 42 25 24 34 83 100 87 32
29 38 44 48 49 48 48 53 57 56 59 65 66 58 67 62 67 69 67 68 64 56 52 50 49 47 44 47 51 51 55 60 80 92 82 48 30 20 26 43 47 38 29 14
19 28 40 40 52 49 50 54 56 63 70 62 71 72 74 72 71 71 68 64 58 54 51 48 48 50 50 51 51 53 78 99 100 99 73 40 18 18 20 17 14 12 17 30
16 22 30 37 50 49 45 52 57 66 74 77 81 84 81 76 70 65 57 51 49 49 50 51 48 46 50 53 53 74 99 100 96 75 54 32 21 19 13 11 14 19 34 76
18 40 43 43 47 48 50 47 50 63 74 80 83 78 71 65 59 55 48 55 53 52 48 49 50 52 54 59 97 100 100 91 58 50 30 22 19 14 11 16 24 46 85 88
48 49 48 48 51 53 56 55 62 69 76 76 68 61 59 55 54 56 47 47 46 50 52 54 57 69 49 73 100 95 72 46 36 26 28 23 16 13 22 32 72 84 83 65
54 45 44 47 52 54 62 57 59 57 60 52 55 60 58 57 54 59 52 56 56 54 63 65 69 55 52 56 53 46 37 28 28 34 31 20 18 24 36 80 87 80 52 36
42 43 45 54 59 57 59 55 48 47 46 55 55 58 57 57 46 50 55 55 61 70 66 59 56 60 57 46 41 31 30 35 42 39 28 20 25 29 81 90 78 54 39 29
41 44 55 60 70 65 61 54 47 49 55 57 59 59 60 61 60 57 52 58 79 82 66 67 65 55 44 33 30 33 39 45 45 42 22 28 26 63 93 83 62 44 32 27
46 54 60 58 78 70 64 58 61 58 61 61 63 62 59 62 64 59 67 77 78 77 72 62 52 41 34 32 35 42 47 47 42 26 28 30 37 94 91 69 52 36 30 26
59 67 64 69 78 79 71 67 66 69 69 67 68 58 57 49 50 72 81 82 74 66 65 55 38 31 32 38 45 48 41 36 27 30 33 29 71 99 76 60 42 34 30 22
69 76 70 64 75 69 71 74 75 76 74 66 61 59 58 75 88 84 81 69 69 66 49 33 28 30 39 44 43 35 28 27 33 36 33 69 100 72 64 50 39 33 28 25
91 77 80 71 71 70 71 68 71 66 66 66 76 80 77 73 81 75 70 69 55 38 26 21 24 30 30 28 24 25 29 34 36 32 43 100 80 66 58 47 38 35 26 40
99 95 82 76 75 70 65 63 64 63 62 70 69 67 78 79 71 69 58 44 28 21 20 22 25 25 22 22 27 30 28 28 32 40 100 95 61 62 56 48 41 36 31 51

GFSCGP_500_rhum_021.txt.gz
RH
17 34 79 20 20 22 21 21 22 21 20 18 17 18 12 13 12 14 17 21 27 32 31 28 36 36 38 49 57 56 55 57 56 61 69 66 64 58 58 56 50 51 43 34
18 20 20 19 19 18 16 15 16 17 18 20 19 19 18 19 20 23 25 27 29 28 27 30 33 40 51 60 62 60 59 63 69 72 81 84 72 65 59 53 44 35 32 33
17 14 15 15 15 15 14 13 12 12 12 13 15 19 16 18 20 22 22 23 26 24 27 32 37 44 54 61 61 64 66 66 66 74 69 76 69 55 44 37 38 34 37 43
18 15 15 15 16 18 16 16 14 13 13 54 13 96 58 28 21 23 26 25 27 29 31 36 43 50 55 62 65 62 57 55 60 63 58 58 44 35 35 36 38 48 50 52
25 27 26 25 23 22 22 21 21 22 23 21 20 20 86 56 26 24 26 28 30 30 36 40 44 46 52 60 54 52 56 59 53 42 38 36 36 42 45 50 54 58 58 58
20 24 22 19 16 14 13 14 19 20 23 29 43 24 99 82 35 30 25 28 29 29 31 38 43 45 48 53 57 58 52 41 35 42 41 42 46 52 55 56 56 56 49 40
19 19 15 14 18 19 18 21 28 29 31 76 41 28 50 29 35 32 30 28 31 36 41 48 52 52 52 53 48 44 43 46 41 38 43 51 54 54 52 46 43 40 40 40
16 17 22 24 26 26 28 31 32 35 38 59 29 43 31 37 35 35 36 35 38 52 54 53 55 53 50 49 49 51 47 44 46 51 52 52 50 42 40 41 42 47 44 44
23 20 20 23 25 29 34 35 37 36 32 32 36 36 37 38 38 40 41 46 47 53 55 56 56 54 54 49 45 43 48 51 51 46 43 44 45 45 45 52 66 65 70 62
21 25 31 33 33 33 34 32 34 33 35 35 86 62 99 54 40 34 36 45 55 53 58 58 57 54 49 50 53 52 51 49 47 44 43 45 49 56 63 68 81 82 91 64
25 27 33 36 38 38 38 41 46 44 42 42 38 47 53 58 58 61 60 59 60 62 60 60 58 58 56 53 50 49 47 46 46 47 48 50 51 54 57 71 90 97 65 43
34 34 35 38 39 41 42 45 44 45 48 45 53 52 49 59 65 58 57 58 64 66 65 58 56 55 52 50 48 50 49 47 47 50 50 52 57 69 83 94 72 56 33 12
25 29 33 31 27 26 38 43 44 48 47 55 59 64 71 69 58 60 65 67 68 60 57 56 57 50 48 49 48 44 44 47 54 52 55 63 99 98 74 62 43 18 13 10
22 24 25 32 36 38 41 46 46 42 42 48 61 70 71 89 79 82 78 71 63 64 56 51 53 53 46 41 41 41 44 49 54 63 64 66 64 60 48 25 19 16 11 12
14 18 25 41 44 42 43 49 52 51 52 52 63 69 86 77 82 77 70 68 58 57 54 53 44 41 37 36 40 42 49 65 65 64 59 53 42 29 22 22 19 13 16 22
14 18 38 46 40 35 38 51 52 49 52 56 65 69 71 77 64 63 56 48 53 50 45 40 32 26 26 30 43 61 71 64 61 54 44 32 25 26 31 27 18 17 22 39
16 18 36 36 32 34 38 46 49 48 47 51 56 54 54 55 49 50 43 51 49 43 32 25 27 32 46 84 92 75 64 60 53 40 28 27 34 37 34 26 18 25 31 74
16 18 29 29 31 35 39 47 54 50 50 53 58 55 56 55 54 55 55 53 36 30 31 39 40 55 76 78 70 63 59 48 33 26 24 36 42 41 30 20 26 28 61 82
18 22 28 31 36 37 49 55 58 54 57 51 57 59 60 54 55 62 43 39 37 39 42 43 57 74 70 67 63 53 39 26 26 33 43 53 48 31 24 30 30 41 88 78
19 24 28 36 43 46 58 51 60 59 54 58 59 57 54 56 50 44 47 46 47 45 49 49 59 65 64 57 45 30 20 25 35 43 40 37 29 25 35 35 36 94 86 64
21 24 30 41 45 53 59 62 64 62 68 67 60 59 56 51 49 45 45 45 40 40 52 60 61 56 49 35 21 21 25 38 47 37 28 29 30 37 38 34 99 92 66 50
21 25 36 37 51 59 60 57 56 57 64 60 60 55 52 52 50 49 49 42 49 64 64 63 54 41 21 15 19 24 26 26 25 26 31 35 42 47 38 91 98 68 56 44
25 30 36 41 58 73 75 71 65 73 71 65 59 55 54 52 52 52 50 65 66 65 57 47 28 11 11 15 17 20 20 20 24 29 32 33 38 42 93 100 72 60 51 42
34 35 29 43 82 88 80 80 69 72 66 60 59 58 56 56 56 57 58 60 60 52 35 13 9 10 11 13 16 17 19 25 25 23 24 32 44 90 100 68 62 56 50 43
46 33 48 48 76 80 81 79 78 70 63 62 62 61 60 58 54 49 52 53 44 22 8 10 11 12 14 15 18 22 21 21 23 23 26 40 98 100 66 55 62 59 54 47
43 55 79 81 84 84 80 84 79 66 65 66 65 61 59 52 49 50 46 36 12 8 10 10 11 14 16 19 20 18 23 27 34 39 48 98 100 84 58 63 66 60 58 53

GFSCGP_500_rhum_024.txt.gz
RH
17 19 96 74 34 48 64 52 50 83 15 19 18 21 25 14 17 15 17 22 32 23 24 24 30 29 31 36 48 49 67 76 77 72 75 74 66 62 59 56 46 46 31 34
24 40 48 54 23 23 43 28 38 21 18 20 21 30 14 17 23 19 20 24 24 24 29 32 31 30 34 42 52 65 73 91 90 77 65 62 61 61 60 50 40 40 33 36
18 21 21 21 21 20 18 17 14 19 13 16 17 28 15 15 26 25 22 24 26 24 26 28 33 40 48 56 63 73 77 76 87 73 56 59 60 52 42 40 42 42 46 48
13 14 14 14 13 15 17 14 16 16 17 34 45 83 92 69 52 42 28 27 25 26 27 27 33 39 48 58 70 72 57 59 66 63 59 49 43 44 49 46 46 47 49 47
22 24 24 22 22 23 21 20 20 21 21 26 42 49 100 64 50 45 52 30 29 31 29 33 37 41 47 52 54 56 59 56 49 51 47 51 50 48 49 49 44 41 40 41
14 17 20 21 19 16 14 13 12 12 17 21 42 97 97 99 90 86 45 30 30 30 33 39 42 41 44 56 57 59 55 53 50 46 49 47 49 47 44 44 43 43 44 46
15 16 17 15 15 21 23 24 26 70 67 71 77 83 81 68 99 86 46 36 35 37 46 47 48 49 49 49 52 54 55 53 50 50 48 44 40 41 41 40 43 44 45 48
28 16 20 23 23 24 24 30 30 39 68 61 68 66 62 52 70 78 49 46 47 47 44 39 42 49 52 57 56 54 56 59 58 51 45 43 42 44 40 42 42 44 50 52
25 23 20 22 29 32 34 35 35 36 37 36 38 76 96 91 93 82 62 50 36 38 49 55 55 60 61 62 65 62 57 52 46 46 50 48 42 38 32 43 50 52 55 61
20 23 28 29 31 34 36 36 38 36 36 34 68 100 99 82 67 72 53 53 46 59 57 59 64 65 67 62 57 48 42 42 40 36 30 24 23 30 47 54 50 52 57 57
25 32 35 37 38 37 33 35 39 41 46 46 46 58 67 76 80 86 76 73 63 69 68 73 73 65 58 48 42 39 32 29 26 24 25 32 44 51 56 52 53 53 40 26
32 30 33 33 33 32 35 36 36 36 44 43 44 44 56 60 70 83 71 58 70 69 70 70 62 47 38 41 37 30 24 26 30 33 38 54 61 53 57 54 41 28 24 20
25 25 24 26 27 27 26 30 29 29 40 50 47 52 63 79 80 98 57 89 79 68 62 44 42 44 42 36 30 29 30 32 35 40 61 63 61 53 47 32 26 21 23 27
17 17 18 26 39 34 31 33 35 40 38 39 51 56 66 95 78 77 92 80 68 59 49 48 53 49 32 32 28 27 30 33 39 59 59 57 49 38 22 14 15 23 28 28
15 16 16 22 31 30 29 32 37 39 48 47 49 52 74 66 82 59 57 54 51 51 53 48 38 36 33 31 32 35 36 41 49 53 49 41 22 9 19 18 21 29 31 23
15 16 17 17 23 26 27 36 32 39 48 53 52 56 68 62 42 51 52 50 50 50 44 42 41 40 37 34 31 32 38 52 46 39 27 9 8 9 18 22 30 26 23 23
16 18 18 17 20 23 26 32 33 41 45 56 50 57 52 46 49 57 50 54 52 46 46 42 40 35 31 30 38 51 47 46 33 12 10 14 11 14 25 23 23 25 27 32
18 18 18 18 19 22 27 31 33 43 47 57 60 58 53 62 65 65 55 52 48 44 42 41 37 34 32 40 40 40 38 20 9 10 12 18 29 43 38 27 25 32 37 35
19 19 19 19 19 21 24 25 38 42 55 50 64 65 66 58 60 60 52 47 44 43 43 44 44 42 41 31 29 31 15 9 11 14 16 40 95 100 49 54 45 36 37 89
18 19 20 20 20 21 27 24 33 38 48 49 55 55 57 57 54 52 48 48 50 51 53 47 40 34 34 36 29 11 8 10 13 14 18 22 42 49 62 89 89 68 73 100
19 19 20 20 21 22 25 26 26 42 57 68 68 62 63 60 53 48 45 49 52 47 44 41 40 38 37 22 8 8 9 10 12 16 21 24 25 73 92 80 93 65 99 74
18 20 21 22 23 24 24 24 24 43 77 70 67 68 63 57 52 49 51 50 49 48 45 43 38 35 19 8 9 8 9 12 15 17 17 18 24 25 28 41 84 100 63 59
20 23 23 23 24 29 27 24 39 67 79 78 78 73 65 58 51 50 50 49 53 51 46 40 35 18 8 9 8 7 10 14 16 15 18 21 25 35 42 89 97 58 62 65
24 26 25 25 30 29 26 51 73 85 90 86 76 71 63 50 53 57 58 60 55 50 42 34 16 8 9 7 8 14 17 16 17 21 25 32 43 56 100 99 61 68 72 63
27 28 27 26 28 33 50 62 86 94 87 79 74 62 58 61 62 63 62 61 54 43 36 18 8 9 7 8 14 16 18 21 24 26 35 48 92 98 99 80 67 75 72 63
31 28 28 36 43 56 67 86 98 90 77 63 61 61 64 66 70 69 67 58 46 38 12 9 9 7 8 12 14 18 22 27 29 34 56 88 99 98 88 80 60 79 70 64

GFSCGP_500_rhum_027.txt.gz
RH
38 17 21 21 32 84 80 83 80 23 15 20 19 29 32 17 19 28 24 20 19 21 22 24 24 26 50 68 58 36 26 26 23 25 38 48 61 58 54 49 43 37 37 40
26 28 47 68 50 48 77 72 57 16 18 21 20 25 26 21 28 29 23 29 30 30 32 33 39 49 63 58 40 48 56 64 44 48 51 63 64 59 54 50 47 46 42 41
19 27 29 26 22 24 20 26 37 20 14 21 21 22 20 17 30 41 64 55 34 31 39 42 41 43 39 36 42 50 59 56 53 56 58 56 55 52 53 50 46 48 50 45
15 16 17 17 16 16 14 16 21 21 21 24 21 44 26 21 22 46 59 51 43 60 38 45 46 44 41 49 56 49 46 57 63 61 57 56 54 53 50 52 50 48 48 46
18 20 22 24 27 25 23 22 21 20 20 22 25 38 81 70 48 47 54 61 77 49 33 36 42 41 43 43 45 53 58 54 52 55 59 56 56 58 53 46 47 47 45 40
21 24 24 20 19 16 14 12 12 12 12 13 30 55 82 86 72 64 70 93 83 90 39 41 42 42 43 46 53 63 66 62 56 53 58 56 46 40 35 28 26 25 28 32
10 12 12 13 13 15 17 18 19 24 55 45 51 73 98 99 87 66 53 53 59 46 46 51 42 34 33 48 59 63 66 66 67 62 48 40 29 20 20 23 25 27 31 37
10 14 17 21 18 18 17 20 23 25 27 35 54 44 68 53 62 75 79 68 70 79 76 61 59 61 60 60 62 65 68 61 48 45 34 27 26 25 23 27 33 35 40 43
18 20 19 21 25 25 27 30 31 32 33 36 49 47 52 76 86 100 99 98 83 56 61 66 63 61 61 69 71 64 47 40 29 26 24 22 22 21 23 34 39 46 54 48
21 22 26 28 33 34 32 34 34 35 35 40 50 53 56 54 81 75 62 67 66 58 68 75 80 81 79 68 54 48 38 30 27 25 25 22 25 27 33 35 41 46 39 29
24 30 34 34 33 28 29 26 27 28 27 34 41 52 53 62 71 71 74 67 64 64 86 92 78 62 52 45 38 33 31 26 24 25 26 30 27 26 31 42 38 23 11 8
33 30 30 28 30 34 28 26 25 27 34 39 42 50 70 67 70 70 83 99 76 79 85 57 50 49 46 40 36 33 29 28 30 29 30 31 29 30 31 24 13 10 10 14
25 24 22 21 24 28 26 24 22 22 23 36 42 60 55 51 62 74 79 70 81 76 50 50 48 48 41 38 36 36 37 36 31 31 32 29 32 27 15 8 9 10 10 13
17 16 16 17 20 23 24 25 27 27 26 28 41 43 60 52 45 60 63 62 60 60 60 56 53 47 43 40 40 42 40 34 36 32 30 30 24 14 10 9 8 8 10 21
14 15 16 17 19 20 20 22 22 26 26 28 37 49 44 50 48 55 62 59 59 62 60 54 50 43 39 41 43 39 37 37 34 33 29 22 10 9 9 8 10 43 43 42
14 15 16 18 18 18 18 20 20 23 24 27 32 52 43 47 50 54 65 66 62 56 54 51 47 48 45 37 37 35 38 38 34 30 22 9 9 8 10 28 38 100 100 74
14 15 17 18 19 19 19 20 21 22 24 26 33 41 50 58 67 67 63 61 60 59 53 49 46 37 32 31 30 36 37 35 32 18 9 9 8 11 15 37 62 94 98 76
14 14 17 18 19 19 19 20 21 22 23 24 37 44 49 60 57 61 66 66 62 55 51 44 36 34 32 32 38 42 38 34 13 9 9 8 10 12 18 26 51 74 87 100
15 15 17 18 18 19 19 20 22 22 23 30 40 40 53 69 74 70 69 66 60 49 38 34 32 34 41 45 41 37 38 17 10 9 7 8 10 15 20 26 44 100 100 57
15 16 17 18 18 18 18 18 20 22 25 28 34 52 66 75 78 76 69 58 46 40 36 30 34 43 50 48 46 40 18 10 9 7 7 10 13 19 24 26 41 67 65 73
16 16 18 18 18 18 20 20 22 24 25 27 43 60 77 83 79 68 56 42 38 35 33 40 49 53 48 49 41 20 12 10 9 7 10 13 17 22 26 39 93 78 96 79
16 18 19 18 19 18 20 21 24 26 26 33 45 62 78 78 67 51 44 45 42 41 44 50 47 48 55 49 27 17 14 11 7 9 10 15 19 25 36 52 83 98 75 73
17 20 20 20 21 23 26 24 26 28 36 44 58 68 78 72 61 57 55 50 47 46 48 51 55 59 57 30 15 13 10 8 10 12 14 18 23 38 71 88 96 79 69 78
20 21 20 22 30 45 40 28 28 35 40 56 71 78 76 70 66 63 55 51 50 53 58 62 64 61 33 14 13 12 8 10 11 12 18 24 41 79 82 88 83 70 68 77
24 25 28 28 35 36 29 30 34 47 55 79 85 82 75 70 70 63 57 58 64 71 74 70 60 32 20 14 12 9 9 10 11 18 25 50 70 75 78 84 84 68 78 76
32 31 32 51 41 33 33 36 53 52 71 92 97 83 74 71 70 70 69 71 79 81 74 60 34 22 16 12 11 9 10 10 16 21 42 67 75 73 79 85 84 76 83 78

GFSCGP_500_rhum_030.txt.gz
RH
76 58 40 33 88 80 83 52 45 54 32 40 38 27 16 14 14 20 24 30 28 26 27 24 24 36 68 68 77 90 67 69 38 34 39 53 65 62 62 58 52 51 50 56
28 31 44 43 54 95 92 89 76 38 42 36 23 24 25 25 20 18 20 26 32 52 48 33 34 66 64 72 83 52 47 39 34 40 50 66 66 66 61 55 57 63 61 51
29 47 41 39 43 40 77 82 59 52 42 31 18 17 16 15 16 21 46 54 98 99 87 70 67 65 71 61 49 49 45 42 47 53 62 65 66 66 65 69 70 58 44 32
26 34 25 23 27 24 23 26 41 35 20 22 22 21 22 20 18 22 24 39 54 99 95 85 64 66 56 46 44 46 51 54 57 61 63 69 70 75 79 70 51 33 25 24
17 17 16 18 29 22 22 21 23 23 22 22 23 28 31 26 23 23 36 98 100 99 97 100 100 73 49 50 50 48 49 48 54 66 71 73 76 59 37 28 26 30 28 28
22 26 27 28 27 25 22 18 15 13 13 13 17 19 21 32 45 54 72 100 99 96 86 96 79 69 72 74 60 58 61 65 66 71 76 52 34 26 24 22 26 25 24 24
17 19 15 13 12 12 13 17 17 17 22 51 44 47 48 59 84 89 98 69 51 45 59 69 85 71 71 65 64 65 64 69 70 53 37 28 26 26 26 26 24 24 25 27
10 12 11 13 16 17 18 22 26 28 30 34 30 44 78 77 47 95 46 49 62 73 88 96 70 65 62 65 71 74 62 43 37 30 29 27 27 31 30 27 27 27 29 26
16 23 18 16 23 26 30 32 32 32 34 38 35 35 35 34 38 65 96 99 98 94 74 61 54 72 73 73 58 42 38 34 34 32 34 36 35 29 24 26 28 32 29 27
21 18 22 28 32 32 29 27 24 24 25 28 28 30 34 46 51 52 62 68 69 63 50 58 78 82 66 52 52 49 41 38 36 37 32 26 25 26 28 31 34 32 22 12
20 26 32 33 29 30 29 23 23 23 22 21 25 32 38 43 43 43 48 48 49 54 68 85 94 61 54 53 49 44 42 38 31 26 28 28 29 32 39 37 31 15 10 10
27 31 31 28 30 30 25 24 23 24 24 23 25 31 29 34 38 37 40 45 55 73 92 89 55 56 57 55 50 41 33 30 30 33 31 35 35 39 39 34 21 14 10 8
30 27 26 21 21 24 25 23 20 16 18 22 22 24 25 23 30 46 51 51 73 82 81 60 63 63 56 50 43 38 36 39 38 29 26 34 43 42 40 31 24 18 10 9
25 23 18 16 17 18 20 20 18 18 19 20 21 21 22 26 39 52 57 64 70 67 61 66 64 60 53 46 44 42 44 32 26 32 40 40 41 39 35 25 16 10 8 14
22 15 15 16 17 18 18 18 19 20 20 21 22 22 26 32 42 51 56 56 54 61 69 67 64 57 51 48 43 39 29 30 35 35 32 34 40 37 23 16 9 8 15 24
17 15 16 16 17 18 19 19 19 20 21 21 22 22 26 26 32 50 58 63 68 68 71 68 63 58 55 42 36 30 31 30 26 30 41 46 31 16 14 9 8 10 15 83
20 17 15 15 16 18 19 19 20 20 20 21 22 23 25 27 38 54 68 76 79 78 77 70 59 46 42 39 34 31 27 25 27 35 43 34 16 13 9 8 8 12 17 25
22 18 14 14 15 16 17 19 20 19 20 21 21 24 25 28 36 53 74 83 86 84 71 62 51 46 42 35 31 32 38 39 47 47 34 17 14 9 8 7 9 12 21 41
18 17 15 16 16 16 17 19 20 19 21 22 22 24 27 33 44 54 76 84 81 70 67 56 47 41 37 36 41 48 47 49 51 34 17 15 10 7 7 10 12 14 21 67
14 16 16 16 16 16 18 19 19 20 25 26 26 27 34 43 46 58 72 79 73 68 57 50 49 46 46 50 54 59 58 56 40 23 18 13 8 8 9 13 17 27 47 71
13 16 16 17 16 17 19 20 20 24 32 40 31 28 36 39 51 69 85 79 70 62 58 56 52 55 56 56 58 58 57 50 31 19 15 9 8 8 14 20 47 70 73 80
15 16 18 17 18 18 20 21 23 32 48 42 29 30 38 40 51 76 78 74 67 62 58 60 63 61 55 51 58 62 57 35 18 16 11 10 9 14 20 52 69 72 74 69
18 19 19 19 20 22 22 22 23 38 48 37 31 32 37 40 53 85 84 73 70 69 67 61 62 60 60 67 72 63 42 27 16 13 10 10 12 19 45 64 72 77 80 73
21 20 21 22 23 23 24 30 29 48 42 32 33 34 39 56 84 91 86 83 80 72 63 66 70 70 75 79 67 48 32 18 15 11 12 12 16 34 62 68 72 77 78 74
24 21 22 21 22 23 27 29 40 41 36 35 37 42 61 84 91 92 86 79 77 76 76 76 81 84 84 72 51 36 18 15 12 13 13 16 18 46 66 72 75 82 83 80
28 28 25 22 25 28 33 38 38 38 37 37 39 51 75 82 89 84 83 86 85 79 77 85 90 90 76 55 39 22 15 13 13 16 16 18 23 53 69 76 81 84 84 81

GFSCGP_500_rhum_033.txt.gz
RH
41 38 46 26 47 52 52 19 41 38 26 36 25 13 12 13 13 15 20 20 18 20 22 54 50 40 38 56 95 100 98 99 56 52 54 45 48 47 49 56 64 64 70 66
23 33 37 78 88 77 66 74 33 39 65 44 25 21 17 16 16 14 14 21 45 54 81 91 77 72 86 99 78 60 43 45 54 47 44 46 47 48 56 66 70 72 52 32
26 43 58 95 78 89 77 84 75 65 56 39 27 16 15 16 18 23 43 37 73 81 81 68 78 82 86 66 52 60 53 43 41 42 44 49 58 68 77 80 70 42 31 28
28 25 36 39 31 50 69 66 69 61 47 45 38 22 17 20 27 38 37 34 57 80 83 96 87 83 81 90 74 69 60 54 59 58 63 72 78 86 88 79 61 55 49 44
32 37 34 29 25 22 21 21 21 20 21 24 27 29 24 22 22 26 44 52 62 82 98 80 90 88 90 87 82 80 72 81 82 67 70 77 93 96 72 60 51 41 40 38
33 27 20 19 23 29 28 27 25 24 23 20 19 18 13 14 18 29 46 67 92 74 99 96 99 100 98 97 100 83 82 75 76 80 95 89 59 53 47 42 36 27 27 26
24 22 25 26 26 22 20 16 16 18 18 18 21 30 37 33 46 55 72 45 86 97 67 90 94 96 100 100 96 79 72 80 84 76 51 46 40 37 31 27 27 24 20 18
20 17 16 14 14 18 18 19 23 24 25 25 26 24 26 30 30 30 33 37 42 82 99 100 100 98 99 95 79 74 71 51 44 41 40 37 31 30 30 24 20 19 17 18
16 14 15 17 18 23 28 31 28 23 22 21 20 19 24 25 27 32 37 40 77 99 95 60 76 80 65 63 55 59 45 45 45 43 38 35 32 28 22 21 19 18 18 27
16 20 19 22 28 31 27 24 22 23 22 21 19 18 17 19 21 29 33 38 42 44 51 56 54 60 63 58 48 51 53 50 45 40 35 31 26 24 22 20 18 19 26 36
21 20 27 33 33 28 29 24 23 22 21 20 19 18 18 16 16 23 31 38 43 46 49 57 59 58 48 49 59 57 56 51 44 37 33 28 26 24 22 21 23 26 29 30
20 29 32 33 32 32 32 25 23 21 18 18 18 18 17 18 18 16 16 16 20 27 37 46 50 49 55 69 66 63 55 50 42 35 31 29 26 25 24 26 26 28 32 34
25 30 32 30 27 25 25 23 22 20 18 18 19 19 20 20 20 20 18 18 20 28 44 56 58 57 73 66 65 61 57 48 40 37 33 31 30 29 25 28 32 37 36 27
30 29 28 23 18 17 17 19 19 18 18 19 20 20 19 20 21 22 22 22 27 36 48 54 62 71 67 71 69 65 58 48 43 37 33 35 36 33 35 39 41 40 29 18
32 26 23 17 15 16 17 18 19 19 19 20 20 20 19 20 22 23 24 27 31 40 61 69 70 75 78 77 75 67 47 43 41 38 40 40 36 40 49 49 43 30 16 9
34 30 18 15 15 16 17 18 19 19 19 19 19 19 19 20 22 24 26 28 30 37 54 73 84 89 88 84 72 52 51 47 44 46 39 36 41 55 56 47 31 18 10 6
30 29 18 15 16 16 16 17 17 18 19 19 19 20 23 25 27 27 28 31 34 42 61 88 96 93 86 70 58 57 53 49 46 41 42 44 56 59 50 34 20 11 7 10
26 27 23 19 17 16 18 17 17 17 18 19 20 22 28 38 33 28 30 34 36 49 72 90 91 82 70 63 60 59 55 50 48 50 54 63 65 52 40 23 13 8 11 17
14 20 24 20 17 16 15 17 17 17 19 21 22 24 42 46 36 29 32 38 41 50 70 84 87 78 69 67 68 60 57 59 60 65 71 65 57 45 28 17 10 10 17 39
14 14 14 15 16 14 16 18 18 18 20 21 23 25 40 48 36 31 34 40 43 53 82 91 87 76 78 72 69 70 73 72 70 70 68 62 50 30 17 11 10 15 37 49
14 14 14 15 15 14 18 18 18 20 21 23 23 26 39 48 39 33 35 43 48 72 96 94 89 81 73 77 76 74 71 72 76 77 67 56 32 18 12 12 13 23 44 53
14 14 16 16 16 14 18 19 20 22 23 23 31 33 42 45 37 36 39 43 58 84 96 94 83 82 82 77 70 68 66 76 82 69 56 34 18 13 13 14 16 37 54 60
20 21 19 19 19 20 19 20 21 21 23 25 28 30 41 41 39 38 39 42 76 87 86 86 89 88 85 78 70 68 77 86 70 54 33 19 14 13 16 16 22 49 58 70
26 26 21 23 27 25 23 21 22 22 23 26 30 39 41 41 40 41 47 69 93 90 92 95 99 100 94 81 75 79 88 70 48 30 19 15 14 18 19 19 34 56 64 79
29 30 28 22 24 21 21 25 25 24 28 34 42 44 49 52 64 77 90 97 95 99 100 100 100 99 91 84 86 90 69 45 29 20 16 15 17 22 22 22 47 72 73 86
35 30 24 20 21 20 21 26 31 39 41 42 47 48 52 66 76 87 89 96 100 100 100 100 100 94 90 92 90 68 41 27 18 16 17 18 23 27 26 26 56 87 83 84

GFSCGP_500_rhum_036.txt.gz
RH
97 96 96 90 72 34 13 24 18 12 13 16 16 18 18 21 23 25 22 20 19 16 18 29 60 52 36 43 62 88 85 97 78 69 64 55 80 46 48 46 51 60 60 62
56 59 66 54 43 40 17 33 41 47 42 26 37 28 22 19 16 14 13 14 16 15 34 43 52 71 83 92 93 65 43 37 49 70 64 57 57 63 62 62 65 67 66 49
44 46 43 56 69 62 72 55 52 52 56 45 32 21 25 18 15 14 16 18 19 25 44 55 52 85 86 71 66 65 62 63 60 72 56 60 57 59 65 68 67 55 42 41
49 32 38 71 79 47 77 57 40 39 39 38 35 32 15 13 17 22 23 23 23 30 31 32 53 74 73 87 73 73 73 86 76 68 71 60 66 74 82 84 70 62 63 60
22 32 44 60 51 30 35 34 27 24 22 20 21 19 15 18 18 21 22 20 29 39 41 64 90 80 93 63 82 76 71 92 88 76 61 74 85 88 79 59 58 53 41 30
29 35 43 49 40 24 20 21 23 24 24 24 22 18 12 16 19 21 24 34 42 49 39 64 99 95 74 97 96 93 98 89 78 72 90 95 89 65 55 47 40 32 29 24
27 30 30 24 19 21 25 24 21 18 16 16 17 17 20 26 30 33 35 37 41 42 42 43 66 83 85 100 99 92 91 89 80 90 85 57 49 46 42 37 34 28 25 25
30 28 25 23 26 22 17 16 19 19 23 27 25 19 18 21 24 26 30 34 36 38 41 75 74 98 93 67 58 64 79 90 82 63 51 49 46 43 42 36 30 27 28 27
26 24 21 18 15 19 22 25 30 29 22 20 20 19 18 17 17 20 24 28 34 39 43 48 47 43 48 53 62 78 82 64 51 52 51 50 48 49 39 33 31 31 33 33
12 14 15 18 21 26 31 31 26 23 22 21 19 17 17 17 16 15 16 17 21 23 28 30 37 43 47 56 62 62 53 54 56 56 59 59 56 40 35 34 34 38 36 34
16 17 28 24 28 35 30 25 24 23 21 18 16 16 17 17 17 18 19 19 18 16 17 20 26 33 44 54 56 58 69 68 67 68 67 59 42 40 41 39 42 38 35 34
18 21 23 30 36 32 30 30 26 25 22 18 17 16 16 16 16 16 17 18 21 22 20 19 20 22 30 49 62 72 73 70 70 72 63 47 46 46 44 47 42 40 41 37
20 21 28 33 32 30 31 30 27 22 21 18 18 17 17 16 16 15 17 23 25 25 23 23 21 22 32 50 66 71 74 77 78 70 56 54 50 50 51 48 47 45 48 54
22 25 29 33 31 26 21 19 18 19 18 18 19 18 17 16 16 20 25 30 28 25 24 25 24 27 34 53 66 76 82 84 76 64 60 56 59 56 56 57 53 55 58 59
21 27 29 29 24 20 16 17 17 18 18 18 18 18 18 17 19 23 32 38 31 27 27 29 30 29 33 49 67 78 84 82 74 66 65 67 66 65 61 57 61 66 64 48
22 27 29 25 23 18 15 16 17 17 18 18 17 18 18 18 19 23 39 43 36 29 29 31 32 34 39 58 82 97 97 84 72 74 75 72 67 57 58 60 67 65 47 28
22 24 29 24 19 15 13 16 18 18 17 17 17 17 18 19 20 24 39 44 43 34 31 34 38 38 42 75 100 100 91 83 85 81 74 69 61 57 56 66 67 46 28 17
18 23 23 22 22 14 12 16 17 20 18 17 17 17 18 19 21 23 32 41 44 39 34 35 38 43 70 93 100 99 96 94 84 82 79 72 63 60 68 69 47 28 18 12
13 13 15 17 16 12 14 15 20 19 18 18 18 18 19 21 22 26 33 40 43 41 36 38 42 50 74 92 100 100 96 92 92 88 82 72 64 68 70 48 29 17 12 14
21 14 12 11 10 9 10 13 15 15 15 19 19 20 21 22 23 30 34 41 44 41 40 41 43 59 86 99 100 100 100 99 92 86 74 71 74 72 48 31 17 12 15 17
24 18 14 12 12 11 14 15 16 16 18 17 20 20 22 23 25 31 37 44 45 43 42 48 62 83 100 100 100 100 97 94 86 78 74 78 75 46 31 16 12 14 19 19
15 18 20 20 18 16 20 20 20 20 19 20 21 22 22 25 28 34 43 46 47 48 65 80 96 100 100 100 100 99 99 93 88 80 79 77 46 29 13 12 15 19 23 24
8 13 13 21 24 25 22 22 21 22 23 23 23 24 28 30 36 43 44 44 45 56 80 100 100 100 100 100 100 100 99 94 86 84 78 47 28 11 12 15 18 25 26 30
10 13 13 16 29 27 25 24 26 26 24 23 26 28 32 43 45 44 46 49 76 92 100 100 100 100 100 100 100 100 95 88 84 75 45 28 11 15 16 18 25 32 29 39
9 11 13 12 21 19 26 28 26 25 26 27 31 42 48 47 48 48 69 83 80 81 89 95 100 100 100 100 100 100 91 90 75 45 26 12 17 18 19 25 33 37 37 54
22 21 15 12 19 19 24 27 29 31 38 45 48 46 45 48 54 85 91 93 89 88 94 100 100 100 100 100 100 93 92 74 49 28 12 17 18 18 24 36 42 41 51 67

GFSCGP_500_rhum_039.txt.gz
RH
85 92 88 85 81 59 38 57 42 22 17 18 21 20 20 40 26 28 31 27 26 21 19 18 25 20 20 33 58 91 69 73 87 66 47 50 59 54 59 64 59 62 67 73
99 88 99 86 88 67 32 71 30 34 45 33 26 25 24 22 22 19 18 19 20 23 21 22 23 29 55 63 79 81 74 56 34 26 37 60 75 73 74 63 60 75 74 54
90 64 65 72 65 72 43 34 62 71 71 46 26 22 19 17 16 16 19 22 22 23 25 26 27 39 45 50 50 52 58 60 45 39 60 72 74 76 68 75 88 89 69 52
81 58 54 67 63 60 51 49 23 15 35 39 24 16 14 13 17 20 22 20 20 21 21 26 45 56 73 87 67 73 76 65 66 72 90 77 69 66 63 74 80 67 57 59
75 66 48 56 56 53 53 79 70 52 35 22 15 16 14 17 16 17 16 18 20 24 34 50 64 43 59 84 92 73 71 68 79 99 98 89 76 77 91 97 73 63 56 47
59 42 36 33 61 71 48 38 36 24 18 15 18 15 14 18 22 29 33 32 35 40 44 48 44 39 42 73 91 86 100 98 95 81 72 70 87 90 81 65 58 52 48 49
28 26 38 44 48 48 31 22 20 22 20 14 18 19 24 21 21 21 24 26 28 31 33 34 37 37 76 66 54 85 97 86 52 50 75 97 83 64 60 56 53 53 54 39
29 32 33 35 34 24 24 25 19 14 18 26 23 18 18 16 15 15 16 17 19 21 25 26 24 23 26 30 32 34 36 40 46 53 73 70 58 58 56 57 61 56 42 42
27 25 25 25 29 26 19 15 19 26 24 20 18 18 17 16 15 15 16 16 16 16 16 17 18 18 19 20 21 23 27 37 54 63 57 55 61 62 67 68 56 46 49 48
23 21 20 22 20 15 17 25 30 24 22 21 19 18 18 18 18 17 18 16 17 19 21 22 22 21 20 21 22 23 26 36 54 64 69 70 74 74 76 63 54 55 55 49
12 13 17 17 15 20 26 33 26 23 22 20 18 19 18 18 16 15 14 15 18 24 25 25 24 24 23 22 22 24 28 34 47 65 71 78 83 82 70 62 61 60 53 52
12 14 18 26 22 24 34 31 25 25 25 23 20 17 18 18 16 14 14 17 23 28 30 28 26 26 26 25 25 26 28 36 51 74 91 96 92 82 73 70 68 58 60 64
14 14 19 23 24 32 30 32 33 28 25 20 18 18 18 17 16 16 16 20 24 33 38 37 36 32 28 28 29 30 34 40 66 86 92 94 91 83 78 72 65 73 74 66
18 16 20 24 30 33 31 31 26 21 18 18 18 18 19 18 18 17 17 18 21 27 35 36 41 40 34 31 32 34 39 54 64 74 87 90 91 89 83 81 84 77 68 56
20 19 21 28 31 31 26 22 18 17 17 17 17 18 18 18 17 17 18 18 20 22 28 36 43 42 40 35 34 40 43 43 60 78 87 94 95 95 92 87 79 70 59 55
20 20 22 27 29 28 24 18 16 16 16 17 17 17 17 17 16 16 17 19 21 23 25 36 41 43 42 38 37 41 39 47 74 92 99 100 99 96 88 82 76 61 53 58
21 20 21 23 27 24 16 18 17 16 16 17 18 20 19 17 17 17 18 20 22 23 26 32 37 44 43 41 42 42 48 68 98 100 100 98 95 91 88 80 63 54 58 55
18 19 19 19 21 16 18 20 25 24 20 19 19 21 20 18 18 18 19 21 23 25 28 32 37 43 44 44 45 58 79 98 100 100 100 99 93 89 77 61 56 63 54 17
16 14 12 11 12 10 11 13 16 17 16 18 17 16 16 17 18 20 20 23 25 28 30 34 40 47 50 54 66 87 98 100 100 100 100 94 92 77 63 61 66 58 16 12
28 27 24 18 11 8 10 12 13 13 12 15 15 16 16 17 19 21 24 26 28 30 35 43 49 56 59 65 86 98 100 100 100 100 95 92 78 66 66 69 61 16 12 14
27 23 18 18 14 10 17 19 18 17 15 16 17 18 20 22 24 28 27 29 34 37 46 53 59 55 79 87 92 100 100 100 100 99 99 87 72 68 73 64 19 12 15 14
12 12 13 14 14 14 17 17 16 16 18 22 23 26 28 29 28 27 30 34 39 52 54 51 56 80 86 86 98 100 100 100 100 99 92 94 70 75 67 20 11 19 16 17
7 10 9 11 12 12 10 9 11 16 20 24 30 32 30 28 28 32 34 43 50 47 46 55 86 98 96 97 100 100 100 100 100 100 97 81 67 68 23 10 19 19 18 24
8 9 8 7 14 10 7 8 10 15 24 30 28 27 26 27 32 42 45 44 40 44 72 81 90 100 100 100 100 100 100 100 99 98 88 74 68 25 10 18 20 18 24 35
8 8 7 6 8 7 13 15 18 21 24 24 26 31 37 44 47 45 48 65 83 94 99 100 100 100 100 100 100 100 100 100 98 92 82 67 28 11 14 19 19 22 32 40
11 10 8 8 11 13 19 22 23 25 29 36 43 46 44 40 48 69 88 87 92 95 98 100 100 100 100 100 100 100 99 94 94 86 65 32 12 14 18 19 24 29 38 42

GFSCGP_500_rhum_042.txt.gz
RH
97 100 100 93 82 81 51 68 66 59 57 42 26 36 47 58 64 43 28 29 32 26 21 19 19 20 24 36 39 54 59 66 80 95 73 68 57 79 91 84 68 62 54 55
93 100 98 93 77 65 67 52 89 83 51 47 38 29 30 32 30 26 25 25 23 20 20 19 18 18 20 22 28 27 23 28 47 58 69 59 67 98 99 98 78 64 69 83
100 78 90 90 92 85 66 61 97 65 73 70 51 34 31 26 24 20 21 22 26 28 21 20 21 21 30 39 37 42 60 55 51 62 59 62 77 87 85 91 91 85 99 100
85 86 67 56 61 65 60 46 29 22 53 88 44 80 31 23 24 22 28 30 28 23 20 21 26 45 49 61 43 52 72 76 73 62 54 64 73 81 68 60 66 77 73 73
91 82 70 60 64 52 72 83 92 81 70 54 26 25 72 17 19 20 19 17 18 19 26 39 56 70 59 31 33 32 30 37 51 47 76 98 74 46 54 70 82 79 74 70
94 97 84 70 52 58 66 67 52 77 56 32 24 19 50 19 20 16 20 26 28 31 36 38 33 28 23 23 22 20 28 29 29 28 25 27 37 48 59 65 68 69 66 64
91 75 65 43 38 42 73 55 37 25 23 21 16 15 20 22 20 18 18 18 19 21 22 21 20 17 18 19 20 20 20 20 21 22 24 28 39 53 61 65 63 66 68 72
56 36 31 35 45 56 49 36 24 25 21 15 19 23 20 17 16 15 14 14 15 15 16 17 18 20 20 20 22 22 22 22 22 23 25 29 36 48 61 69 78 82 84 82
27 29 31 36 37 34 28 28 28 18 16 26 22 20 17 15 15 15 16 17 15 17 19 22 23 23 23 23 23 23 23 23 23 24 25 27 32 41 48 66 78 81 82 75
27 28 27 27 27 24 26 23 18 24 26 22 20 18 17 16 17 17 16 15 14 16 23 26 28 28 27 26 27 26 26 26 27 27 27 29 34 42 63 74 85 86 76 72
20 23 23 22 21 20 18 16 27 31 24 21 19 18 18 18 17 16 16 14 14 16 21 27 34 36 34 33 35 35 31 30 30 32 32 33 33 55 70 79 80 79 77 71
13 12 12 14 17 15 14 23 32 25 24 22 23 21 18 18 18 18 18 17 16 17 21 23 27 35 36 37 41 41 39 38 36 34 36 37 41 56 74 82 90 84 82 84
8 10 11 14 17 23 23 32 31 26 25 24 24 18 18 18 18 18 18 17 17 18 18 18 20 24 28 31 40 42 42 41 38 37 39 42 43 54 76 90 89 93 90 85
9 15 15 16 22 24 28 32 30 29 28 26 19 17 18 17 17 18 18 17 17 17 17 18 19 21 22 27 34 38 40 43 41 41 43 44 57 77 91 97 97 90 85 77
9 18 18 18 20 23 29 32 29 27 25 18 16 17 17 17 17 18 18 17 17 17 17 18 20 22 23 25 29 32 39 44 45 44 48 64 82 93 98 96 92 85 74 65
22 21 21 19 20 24 29 29 27 24 20 18 16 16 17 17 17 18 18 19 18 18 18 19 21 22 24 27 30 35 41 47 49 54 66 89 94 95 96 94 85 80 78 78
25 23 21 19 20 22 21 26 28 27 25 22 18 20 17 16 16 17 20 18 17 18 20 21 23 26 26 30 34 41 48 50 56 72 98 97 97 98 97 93 88 93 88 65
25 25 21 20 20 18 18 22 26 25 25 25 25 24 21 19 17 16 15 16 19 20 22 25 27 27 30 34 42 50 56 64 84 100 100 100 100 100 100 98 96 91 71 51
22 19 17 15 14 13 13 13 15 15 16 16 14 13 13 14 15 18 20 22 22 24 27 30 30 34 38 49 58 66 70 97 100 100 100 100 100 100 100 100 88 83 54 46
30 27 24 22 19 16 18 17 14 12 12 13 14 16 17 19 21 23 25 26 28 32 33 32 36 44 54 56 60 61 94 100 100 100 100 100 100 100 100 92 88 65 51 29
32 30 26 24 16 11 14 12 10 11 12 11 12 13 16 23 25 28 30 33 34 32 35 43 54 60 58 60 78 100 100 100 100 100 100 100 100 100 97 91 73 61 34 10
10 9 9 9 8 9 9 7 7 8 7 8 9 11 15 21 28 33 32 31 32 39 51 54 57 61 79 99 98 95 100 100 100 100 100 100 100 96 86 78 61 42 11 12
9 9 9 9 9 8 6 6 6 6 7 9 12 17 20 21 23 25 30 41 50 49 46 54 77 81 87 93 89 100 100 100 97 91 100 100 98 73 75 72 45 15 11 17
10 10 9 9 9 8 8 8 8 9 11 15 19 21 22 24 32 43 47 44 40 42 58 80 86 95 90 82 87 96 100 100 100 100 100 100 90 89 73 42 20 11 17 21
11 10 10 10 10 10 10 10 10 13 16 18 21 27 38 45 44 38 34 44 72 88 95 94 85 87 96 100 100 100 100 100 100 100 100 84 88 72 41 17 12 17 22 23
11 10 10 9 10 9 11 12 16 20 25 32 38 39 37 37 43 51 75 94 97 94 98 99 100 100 100 100 100 100 100 100 100 100 99 89 65 34 15 13 17 25 26 30

GFSCGP_500_rhum_045.txt.gz
RH
94 96 97 96 98 98 99 84 82 82 52 75 81 49 22 38 44 75 41 34 38 34 30 25 23 20 21 21 27 34 34 35 48 35 34 34 39 62 62 75 81 95 82 66
92 99 100 100 97 97 94 100 89 82 61 47 51 80 36 32 41 37 36 34 38 32 27 21 19 17 18 19 18 18 18 20 25 36 50 57 59 59 67 81 89 80 60 61
97 99 100 96 95 98 94 99 97 98 57 63 92 94 26 25 29 32 30 27 28 23 22 24 23 25 28 29 31 34 29 28 34 40 31 30 34 28 35 50 44 39 48 61
99 92 99 94 100 79 100 51 56 48 25 83 48 92 98 70 31 39 41 29 23 24 26 24 21 22 31 42 43 29 25 21 21 22 20 20 20 22 24 22 23 23 42 51
99 100 74 92 95 45 96 40 58 82 82 100 96 52 90 78 64 40 24 25 23 21 20 19 24 34 40 27 21 19 16 18 19 20 20 21 22 22 22 22 23 25 29 42
96 99 77 94 67 62 55 63 92 67 92 96 74 98 90 94 89 30 17 15 15 17 22 28 33 26 20 18 18 18 19 21 22 22 21 22 21 21 21 20 22 23 27 35
98 100 67 74 76 56 57 64 95 96 95 64 79 43 71 78 42 28 21 21 24 25 24 20 18 17 18 19 20 21 24 25 25 25 23 23 24 25 25 24 25 26 28 36
100 74 60 49 71 100 79 98 100 92 81 61 76 28 89 25 20 18 16 15 16 15 15 16 19 21 23 23 24 25 27 29 32 31 29 30 30 30 30 30 31 34 32 63
90 99 63 32 40 64 83 48 41 31 28 20 22 88 23 18 16 15 15 15 16 14 15 20 24 27 28 28 28 28 29 33 38 38 36 33 33 34 34 34 35 36 40 45
92 100 66 28 33 39 38 37 27 27 19 22 65 47 82 17 16 16 16 16 15 14 14 15 18 24 26 27 27 28 29 32 39 42 41 40 40 39 36 36 37 39 44 57
76 38 72 26 26 59 26 22 22 17 24 29 27 63 24 16 17 17 16 16 16 16 15 15 16 18 20 19 19 22 25 31 36 39 40 41 41 39 39 41 41 46 66 75
25 43 37 22 19 21 16 15 14 17 31 25 23 27 20 19 17 17 18 18 18 17 17 17 17 17 17 18 18 20 22 24 28 31 33 35 40 42 44 44 51 72 83 78
12 13 13 11 10 10 13 15 15 26 29 23 23 28 22 19 18 18 18 18 18 18 17 17 17 17 17 18 18 20 23 24 26 28 32 37 41 47 51 58 80 92 85 87
9 10 9 12 87 77 21 21 23 30 28 25 24 28 26 18 16 16 17 17 18 18 18 19 18 18 19 19 20 21 23 26 30 33 37 43 52 57 66 93 98 91 96 100
10 8 9 15 15 19 21 24 29 31 28 29 28 25 17 16 16 16 15 16 16 17 18 20 20 20 21 20 22 24 27 31 34 39 49 55 59 69 97 100 98 100 100 100
8 8 9 18 18 18 20 21 27 31 33 31 29 25 24 19 17 15 18 20 20 19 19 18 19 20 21 22 26 30 32 37 44 49 58 60 71 100 100 99 100 100 100 100
19 22 24 22 22 19 17 22 28 30 31 32 29 29 23 21 19 22 22 18 16 16 16 19 22 24 26 29 34 35 41 44 53 59 65 76 100 100 100 100 100 100 100 100
29 31 30 26 26 20 18 21 23 23 26 28 26 27 23 18 17 13 12 13 16 19 23 26 29 33 37 38 37 42 48 60 64 66 82 100 100 100 100 100 98 99 100 100
32 30 30 26 25 21 20 16 19 18 19 15 16 13 11 11 12 15 14 22 25 29 33 35 39 40 37 37 41 56 59 60 71 98 98 100 100 100 100 100 100 99 100 93
32 30 26 23 18 14 13 18 18 19 20 12 15 14 15 18 18 25 20 22 26 29 34 35 33 33 37 49 57 58 76 97 100 100 99 91 100 100 100 100 100 100 100 95
35 37 34 33 28 22 17 13 11 10 9 8 9 8 8 10 9 11 11 15 19 22 24 28 36 48 52 51 62 94 100 92 99 100 99 97 100 100 100 100 100 99 94 75
18 18 17 14 10 8 7 6 6 7 7 6 7 7 7 7 8 11 14 17 21 26 36 45 48 42 46 75 94 91 86 95 100 100 100 100 100 100 100 100 99 96 81 33
10 11 10 10 9 8 8 8 8 8 8 8 8 9 8 10 10 16 19 25 36 39 36 35 41 80 97 99 100 100 98 100 100 100 100 100 100 100 100 99 98 80 27 14
11 12 12 12 11 10 10 10 10 9 8 8 9 10 13 17 19 25 37 37 36 44 62 73 91 96 97 99 97 99 100 100 100 100 100 100 100 100 100 95 56 17 13 11
12 13 13 13 12 12 10 10 9 7 8 10 13 19 26 34 38 37 39 52 70 74 86 93 97 98 98 100 100 100 100 100 100 100 100 100 100 100 78 32 18 11 11 16
13 13 15 12 11 10 8 8 9 10 14 21 29 37 42 39 36 45 61 72 87 94 97 99 97 97 95 99 100 100 100 100 100 100 100 100 93 51 23 14 12 12 16 23